ACA873 CYUL-KJFK

Flight info

Callsign ACA873
Flight time N/A
Altitude 19000
Route
Aircraft A339/H-SADE1E2E3GHIJ3J5M1P2RWXY/LB2D1

Departure

Time N/A
Airport Montreal / Pierre Elliott Trudeau International Airport (CYUL)

Arrival

Time 2026-05-07 02:16
Airport John F. Kennedy International Airport (KJFK)
Time Latitude Longitude Altitude Speed Heading
2026-05-07 01:45 40.38720 -76.15813 33638 ft 579 kts 82°
2026-05-07 01:45 40.40055 -76.05576 33446 ft 561 kts 79°
2026-05-07 01:45 40.40725 -76.00630 33273 ft 551 kts 78°
2026-05-07 01:46 40.41405 -75.95691 33069 ft 541 kts 78°
2026-05-07 01:46 40.42006 -75.90852 32695 ft 537 kts 85°
2026-05-07 01:46 40.42041 -75.86005 32225 ft 533 kts 96°
2026-05-07 01:46 40.41785 -75.81136 31322 ft 541 kts 97°
2026-05-07 01:47 40.41478 -75.76199 30278 ft 550 kts 98°
2026-05-07 01:47 40.41154 -75.71214 28868 ft 558 kts 98°
2026-05-07 01:47 40.40824 -75.66120 27422 ft 564 kts 98°
2026-05-07 01:47 40.40478 -75.61034 25946 ft 568 kts 97°
2026-05-07 01:48 40.40117 -75.55943 24476 ft 569 kts 97°
2026-05-07 01:48 40.39728 -75.50807 23642 ft 555 kts 98°
2026-05-07 01:48 40.39344 -75.45908 23000 ft 538 kts 98°
2026-05-07 01:48 40.38943 -75.41103 22392 ft 522 kts 99°
2026-05-07 01:49 40.38528 -75.36487 21489 ft 514 kts 98°
2026-05-07 01:49 40.38184 -75.31822 20313 ft 512 kts 98°
2026-05-07 01:49 40.37841 -75.27392 19444 ft 500 kts 98°
2026-05-07 01:49 40.37503 -75.22933 18946 ft 478 kts 98°
2026-05-07 01:50 40.37183 -75.18738 18869 ft 448 kts 98°
2026-05-07 01:50 40.36879 -75.14825 18860 ft 421 kts 98°
2026-05-07 01:50 40.36595 -75.11115 18858 ft 397 kts 98°
2026-05-07 01:50 40.36343 -75.07562 18859 ft 393 kts 98°
2026-05-07 01:51 40.36109 -75.03979 18859 ft 392 kts 98°
2026-05-07 01:51 40.35904 -75.00442 18861 ft 391 kts 98°
2026-05-07 01:51 40.35705 -74.96883 18877 ft 394 kts 98°
2026-05-07 01:51 40.35500 -74.93324 18871 ft 395 kts 98°
2026-05-07 01:52 40.35305 -74.89733 18863 ft 395 kts 98°
2026-05-07 01:52 40.35113 -74.86111 18864 ft 396 kts 98°
2026-05-07 01:52 40.34916 -74.82558 18861 ft 396 kts 98°
2026-05-07 01:52 40.34706 -74.78959 18821 ft 393 kts 97°
2026-05-07 01:53 40.34491 -74.75429 18585 ft 390 kts 98°
2026-05-07 01:53 40.34256 -74.71896 18269 ft 387 kts 98°
2026-05-07 01:53 40.34012 -74.68382 17931 ft 385 kts 99°
2026-05-07 01:53 40.33486 -74.65035 17637 ft 375 kts 116°
2026-05-07 01:54 40.32211 -74.62154 17316 ft 362 kts 134°
2026-05-07 01:54 40.30650 -74.59584 16959 ft 357 kts 137°
2026-05-07 01:54 40.29063 -74.57114 16615 ft 355 kts 137°
2026-05-07 01:54 40.27458 -74.54636 16271 ft 354 kts 137°
2026-05-07 01:55 40.25875 -74.52212 15942 ft 351 kts 137°
2026-05-07 01:55 40.24296 -74.49780 15715 ft 347 kts 137°
2026-05-07 01:55 40.22746 -74.47387 15355 ft 346 kts 137°
2026-05-07 01:55 40.21208 -74.45012 15020 ft 344 kts 137°
2026-05-07 01:56 40.19666 -74.42626 14727 ft 342 kts 137°
2026-05-07 01:56 40.18136 -74.40248 14096 ft 351 kts 136°
2026-05-07 01:56 40.16529 -74.37736 13200 ft 365 kts 136°
2026-05-07 01:56 40.14838 -74.35329 12610 ft 359 kts 149°
2026-05-07 01:57 40.12704 -74.33808 11844 ft 349 kts 167°
2026-05-07 01:57 40.10416 -74.32707 11148 ft 353 kts 168°
2026-05-07 01:57 40.08123 -74.31644 10976 ft 340 kts 168°
2026-05-07 01:57 40.05962 -74.30634 10971 ft 324 kts 167°
2026-05-07 01:58 40.04007 -74.29201 10979 ft 324 kts 146°
2026-05-07 01:58 40.02643 -74.26874 10977 ft 325 kts 120°
2026-05-07 01:58 40.02126 -74.23951 10968 ft 337 kts 94°
2026-05-07 01:58 40.02413 -74.20927 10976 ft 339 kts 81°
2026-05-07 01:59 40.02938 -74.17924 11005 ft 339 kts 78°
2026-05-07 01:59 40.03511 -74.14946 11015 ft 339 kts 78°
2026-05-07 01:59 40.04082 -74.11985 11025 ft 338 kts 78°
2026-05-07 01:59 40.04671 -74.08992 10956 ft 338 kts 78°
2026-05-07 02:00 40.05272 -74.06023 10968 ft 340 kts 75°
2026-05-07 02:00 40.06185 -74.03234 10968 ft 337 kts 62°
2026-05-07 02:00 40.07358 -74.00604 10789 ft 332 kts 59°
2026-05-07 02:00 40.08561 -73.98017 10432 ft 333 kts 58°
2026-05-07 02:01 40.09785 -73.95421 9941 ft 339 kts 58°
2026-05-07 02:01 40.11031 -73.92809 9302 ft 348 kts 57°
2026-05-07 02:01 40.12321 -73.90073 8667 ft 356 kts 57°
2026-05-07 02:01 40.13599 -73.87332 8043 ft 361 kts 57°
2026-05-07 02:02 40.14914 -73.84512 7292 ft 364 kts 57°
2026-05-07 02:02 40.16243 -73.81697 6322 ft 365 kts 57°
2026-05-07 02:02 40.17545 -73.78899 5380 ft 364 kts 57°
2026-05-07 02:02 40.18903 -73.76168 4582 ft 355 kts 47°
2026-05-07 02:03 40.20724 -73.74143 4113 ft 334 kts 31°
2026-05-07 02:03 40.22606 -73.72553 3966 ft 310 kts 28°
2026-05-07 02:03 40.24384 -73.71121 3957 ft 285 kts 28°
2026-05-07 02:03 40.26066 -73.69788 3975 ft 283 kts 27°
2026-05-07 02:04 40.27747 -73.68471 3969 ft 282 kts 27°
2026-05-07 02:04 40.29446 -73.67155 3960 ft 283 kts 27°
2026-05-07 02:04 40.31140 -73.65846 3963 ft 283 kts 27°
2026-05-07 02:04 40.32832 -73.64537 3965 ft 283 kts 27°
2026-05-07 02:05 40.34533 -73.63229 3967 ft 282 kts 27°
2026-05-07 02:05 40.36214 -73.61933 3969 ft 282 kts 27°
2026-05-07 02:05 40.37915 -73.60617 3970 ft 281 kts 27°
2026-05-07 02:05 40.39594 -73.59321 3968 ft 282 kts 27°
2026-05-07 02:06 40.41281 -73.58025 3970 ft 282 kts 27°
2026-05-07 02:06 40.42993 -73.56699 3970 ft 282 kts 27°
2026-05-07 02:06 40.44675 -73.55392 3970 ft 284 kts 27°
2026-05-07 02:06 40.46378 -73.54063 3968 ft 283 kts 27°
2026-05-07 02:07 40.48124 -73.52894 3940 ft 279 kts 11°
2026-05-07 02:07 40.51869 -73.52925 3972 ft 266 kts 348°
2026-05-07 02:07 40.53693 -73.53236 3968 ft 267 kts 347°
2026-05-07 02:08 40.55536 -73.53567 3968 ft 266 kts 347°
2026-05-07 02:08 40.57362 -73.53904 3912 ft 263 kts 347°
2026-05-07 02:08 40.59177 -73.54227 3456 ft 262 kts 348°
2026-05-07 02:08 40.60955 -73.54536 3016 ft 258 kts 348°
2026-05-07 02:09 40.62727 -73.54839 2610 ft 253 kts 348°
2026-05-07 02:09 40.64461 -73.55128 2305 ft 244 kts 349°
2026-05-07 02:09 40.66126 -73.55400 2000 ft 240 kts 346°
2026-05-07 02:09 40.67774 -73.55704 1986 ft 239 kts 347°
2026-05-07 02:10 40.69413 -73.56020 1974 ft 237 kts 347°
2026-05-07 02:10 40.71034 -73.56343 1961 ft 231 kts 348°
2026-05-07 02:10 40.72497 -73.56924 1917 ft 212 kts 321°
2026-05-07 02:10 40.73463 -73.58285 1951 ft 195 kts 302°
2026-05-07 02:11 40.74153 -73.59748 1948 ft 181 kts 298°
2026-05-07 02:11 40.74751 -73.61120 1965 ft 166 kts 297°
2026-05-07 02:11 40.75307 -73.62413 1955 ft 158 kts 294°
2026-05-07 02:11 40.75427 -73.63753 1916 ft 145 kts 252°
2026-05-07 02:12 40.74950 -73.64843 1932 ft 130 kts 239°
2026-05-07 02:12 40.74339 -73.65775 1978 ft 140 kts 229°
2026-05-07 02:12 40.73680 -73.66793 1998 ft 153 kts 236°
2026-05-07 02:12 40.72995 -73.67885 1979 ft 154 kts 238°
2026-05-07 02:13 40.72283 -73.68948 1959 ft 151 kts 236°
2026-05-07 02:13 40.71523 -73.69818 1807 ft 147 kts 227°
2026-05-07 02:13 40.70636 -73.70599 1434 ft 156 kts 222°
2026-05-07 02:13 40.69722 -73.71328 1220 ft 150 kts 220°
2026-05-07 02:14 40.68867 -73.72018 1017 ft 140 kts 219°
2026-05-07 02:14 40.68051 -73.72665 833 ft 136 kts 214°
2026-05-07 02:14 40.67244 -73.73308 677 ft 136 kts 215°
2026-05-07 02:14 40.66431 -73.73955 511 ft 136 kts 215°
2026-05-07 02:15 40.65616 -73.74603 339 ft 136 kts 214°
2026-05-07 02:15 40.64812 -73.75242 139 ft 137 kts 214°
2026-05-07 02:15 40.64015 -73.75877 50 ft 127 kts 216°
2026-05-07 02:15 40.63331 -73.76451 25 ft 101 kts 206°
2026-05-07 02:16 40.62814 -73.76829 24 ft 50 kts 209°
2026-05-07 02:16 40.62598 -73.77045 23 ft 26 kts 242°
2026-05-07 02:16 40.62596 -73.77188 23 ft 11 kts 300°
2026-05-07 02:16 40.62609 -73.77206 23 ft 0 kts 319°
2026-05-07 02:17 40.62611 -73.77209 23 ft 0 kts 320°
2026-05-07 02:17 40.62616 -73.77213 23 ft 0 kts 322°
2026-05-07 02:17 40.62623 -73.77220 23 ft 3 kts 326°
2026-05-07 02:17 40.62658 -73.77246 23 ft 8 kts 334°
2026-05-07 02:18 40.62733 -73.77256 23 ft 10 kts 16°
2026-05-07 02:18 40.62806 -73.77203 23 ft 16 kts 28°
2026-05-07 02:18 40.62891 -73.77130 23 ft 18 kts 31°
2026-05-07 02:18 40.63027 -73.77023 24 ft 27 kts 28°
2026-05-07 02:19 40.63205 -73.76949 24 ft 25 kts
2026-05-07 02:19 40.63345 -73.76981 24 ft 17 kts 314°
2026-05-07 02:19 40.63412 -73.77102 24 ft 16 kts 302°
2026-05-07 02:19 40.63470 -73.77226 24 ft 17 kts 302°
2026-05-07 02:20 40.63537 -73.77374 24 ft 25 kts 298°
2026-05-07 02:20 40.63617 -73.77545 24 ft 22 kts 303°
2026-05-07 02:20 40.63648 -73.77623 24 ft 2 kts 239°
2026-05-07 02:20 40.63632 -73.77646 24 ft 7 kts 229°
2026-05-07 02:21 40.63607 -73.77673 24 ft 2 kts 212°
2026-05-07 02:21 40.63605 -73.77674 24 ft 2 kts 208°